Flag for Switzerland Weather past 2 weeks in Martigny, Valais, Switzerland

Now
61 °F

Cool.


Feels Like: 61 °F
Forecast: 63 / 79 °F
Wind: 1 mph from Northeast

Location: Sion

Current Time: Aug 29, 2014 at 2:27:17 AM

Latest Report: Aug 29, 2014 at 1:00 AM


Visibility: N/A

Pressure: 30.09 "Hg

Humidity: 86%

Dew point: 56 °F

Location of MartignyLocation

Historic Weather in Martigny — Graph

°F

Martigny temperature yesterday

Maximum temperature yesterday: 80 °F (at 5:00 PM)
Minimum temperature yesterday: 58 °F (at 1:00 AM)
Average temperature yesterday: 68 °F

Past Weeks' High & Low Weather Summary

 TemperatureHumidityPressure
High81 °F (Aug 18, 4:00 PM)98% (Aug 27, 1:00 AM)30.22 "Hg (Aug 27, 1:00 AM)
Low47 °F (Aug 17, 7:00 AM)31% (Aug 18, 4:00 PM)29.73 "Hg (Aug 18, 4:00 PM)
Average62 °F67%29.98 "Hg
* Reported Aug 14 1:00 AM — Aug 29 1:00 AM, Martigny, Weather by CustomWeather, © 2014

Note: Actual official high and low records may vary slightly from our data, if they occured in-between our weather recording intervals... More about our weather records

Advertising

Martigny weather history for previous 24 hours

 ConditionsComfort  
Time TempWeatherWind HumidityBarometerVisibility
1:00 AM
Aug 29
61 °FCool.1 mph86%30.09 "HgN/A
12:00 AM64 °FMild.1 mph76%30.08 "HgN/A
11:00 PM
Aug 28
67 °FClear.6 mph67%30.05 "Hg12 mi
10:00 PM70 °FMild.1 mph59%30.02 "HgN/A
9:00 PM69 °FMild.3 mph60%30.00 "HgN/A
8:00 PM73 °FPassing clouds.16 mph51%29.96 "Hg16 mi
7:00 PM77 °FMild.20 mph46%29.93 "HgN/A
6:00 PM79 °FWarm.15 mph44%29.91 "HgN/A
5:00 PM80 °FScattered clouds.14 mph42%29.90 "Hg16 mi
4:00 PM79 °FWarm.15 mph44%29.92 "HgN/A
3:00 PM78 °FWarm.16 mph47%29.94 "HgN/A
2:00 PM78 °FPassing clouds.5 mph48%29.95 "Hg16 mi
1:00 PM76 °FMild.3 mph49%29.97 "HgN/A
12:00 PM72 °FMild.3 mph55%30.01 "HgN/A
11:00 AM69 °FPassing clouds.3 mph61%30.04 "Hg16 mi
10:00 AM66 °FMild.2 mph68%30.07 "HgN/A
9:00 AM63 °FMild.2 mph79%30.09 "HgN/A
8:00 AM60 °FScattered clouds.1 mph89%30.09 "Hg12 mi
7:00 AM59 °FCool.1 mph89%30.08 "HgN/A
6:00 AM59 °FCool.1 mph86%30.07 "HgN/A
5:00 AM60 °FCool.3 mph82%30.06 "HgN/A
4:00 AM59 °FCool.1 mph90%30.06 "HgN/A
3:00 AM60 °FCool.1 mph84%30.05 "HgN/A
2:00 AM59 °FPassing clouds.1 mph86%30.06 "Hg12 mi
Weather by CustomWeather, © 2014

See weather overviewHow to use our weather pages